Flag for U.S.A. Weather past 2 weeks in Aliso Viejo, California, U.S.A.

Now
70 °F

Passing clouds.


Feels Like: 68 °F
Forecast: 67 / 81 °F
Wind: 5 mph from Southwest

Location: John Wayne Airport-Orange County Airport

Current Time: Aug 1, 2015 at 11:26:16 PM

Latest Report: Aug 1, 2015 at 10:53 PM


Visibility: 10 mi

Pressure: 29.92 "Hg

Humidity: 87%

Dew point: 66 °F

Location of Aliso ViejoLocation

Historic Weather in Aliso Viejo — Graph

°F

Aliso Viejo temperature yesterday

Maximum temperature yesterday: 80 °F (at 12:53 PM)
Minimum temperature yesterday: 69 °F (at 7:53 AM)
Average temperature yesterday: 73 °F

Past Weeks' High & Low Weather Summary

 TemperatureHumidityPressure
High88 °F (Jul 19, 11:53 AM)96% (Jul 19, 5:53 AM)30.07 "Hg (Jul 19, 5:53 AM)
Low66 °F (Jul 18, 2:53 AM)37% (Jul 18, 10:53 AM)29.83 "Hg (Jul 22, 5:53 PM)
Average73 °F75%29.94 "Hg
* Reported Jul 17 9:53 PM — Aug 1 9:53 PM, Aliso Viejo, Weather by CustomWeather, © 2015

Note: Actual official high and low records may vary slightly from our data, if they occured in-between our weather recording intervals... More about our weather records

Advertising

Aliso Viejo weather history for previous 24 hours

 ConditionsComfort  
Time TempWeatherWind HumidityBarometerVisibility
9:53 PM
Sat, Aug 1
70 °FPassing clouds.5 mph84%29.91 "Hg9 mi
8:53 PM71 °FPassing clouds.6 mph81%29.90 "Hg9 mi
7:53 PM72 °FScattered clouds.5 mph76%29.89 "Hg10 mi
6:53 PM73 °FScattered clouds.7 mph71%29.89 "Hg10 mi
5:53 PM75 °FScattered clouds.8 mph69%29.88 "Hg10 mi
4:53 PM76 °FScattered clouds.8 mph67%29.89 "Hg10 mi
3:53 PM77 °FScattered clouds.10 mph64%29.90 "Hg10 mi
2:53 PM78 °FScattered clouds.9 mph60%29.91 "Hg10 mi
1:53 PM77 °FScattered clouds.9 mph62%29.92 "Hg10 mi
12:53 PM77 °FScattered clouds.10 mph62%29.94 "Hg10 mi
11:53 AM77 °FScattered clouds.7 mph62%29.95 "Hg10 mi
10:53 AM77 °FScattered clouds.5 mph62%29.96 "Hg10 mi
9:53 AM73 °FPartly sunny.3 mph71%29.98 "Hg10 mi
8:53 AM70 °FOvercast.No wind79%29.98 "Hg10 mi
7:53 AM70 °FOvercast.3 mph79%29.98 "Hg10 mi
6:53 AM69 °FOvercast.3 mph84%29.97 "Hg7 mi
5:53 AM69 °FLow clouds.No wind87%29.96 "Hg8 mi
4:53 AM69 °FOvercast.3 mph90%29.95 "Hg8 mi
3:53 AM69 °FOvercast.5 mph90%29.95 "Hg9 mi
2:53 AM70 °FOvercast.3 mph87%29.96 "Hg9 mi
1:53 AM69 °FLow clouds.No wind90%29.96 "Hg10 mi
12:53 AM69 °FPassing clouds.5 mph90%29.96 "Hg10 mi
11:53 PM
Fri, Jul 31
70 °FClear.5 mph87%29.96 "Hg10 mi
Weather by CustomWeather, © 2015

See weather overviewHow to use our weather pages